| time (UTC) | temp F | wind direction | speed MPH | gust MPH | rain 1hr in | rain 24hr in | rain mn in | humidity % | barometer mb |
| 20260505065941 | 64 | 151 | 2.0 | 7.0 | 0.00 | 0.00 | 0.00 | 58 | 1007.3 |
| 20260505065437 | 65 | 288 | 4.0 | 6.0 | 0.00 | 0.00 | 0.00 | 57 | 1007.1 |
| 20260505064934 | 64 | 138 | 2.0 | 3.0 | 0.00 | 0.00 | 0.00 | 58 | 1007.2 |
| 20260505064431 | 64 | 253 | 4.0 | 7.0 | 0.00 | 0.00 | 0.00 | 58 | 1007.0 |
| 20260505063929 | 64 | 244 | 3.0 | 4.0 | 0.00 | 0.00 | 0.00 | 59 | 1007.2 |
| 20260505063426 | 64 | 144 | 2.0 | 3.0 | 0.00 | 0.00 | 0.00 | 59 | 1007.3 |
| 20260505062922 | 64 | 238 | 2.0 | 3.0 | 0.00 | 0.00 | 0.00 | 59 | 1007.3 |
| 20260505062420 | 64 | 245 | 2.0 | 4.0 | 0.00 | 0.00 | 0.00 | 59 | 1007.2 |
| 20260505061916 | 64 | 203 | 3.0 | 4.0 | 0.00 | 0.00 | 0.00 | 58 | 1007.3 |
| 20260505061414 | 63 | 206 | 3.0 | 4.0 | 0.00 | 0.00 | 0.00 | 59 | 1007.4 |
| 20260505060912 | 63 | 232 | 1.0 | 2.0 | 0.00 | 0.00 | 0.00 | 59 | 1007.3 |
| 20260505060408 | 63 | 158 | 2.0 | 6.0 | 0.00 | 0.00 | 0.00 | 60 | 1007.1 |
| 20260505055905 | 63 | 176 | 2.0 | 3.0 | 0.00 | 0.00 | 0.00 | 60 | 1007.3 |
| 20260505055401 | 63 | 131 | 1.0 | 3.0 | 0.00 | 0.00 | 0.00 | 60 | 1007.4 |
| 20260505054858 | 63 | 134 | 0.0 | 2.0 | 0.00 | 0.00 | 0.00 | 59 | 1007.4 |
| 20260505054355 | 64 | 159 | 2.0 | 3.0 | 0.00 | 0.00 | 0.00 | 58 | 1007.5 |
| 20260505053853 | 64 | 235 | 3.0 | 6.0 | 0.00 | 0.00 | 0.00 | 58 | 1007.5 |
| 20260505053350 | 64 | 126 | 2.0 | 3.0 | 0.00 | 0.00 | 0.00 | 58 | 1007.6 |
| 20260505052847 | 63 | 171 | 2.0 | 3.0 | 0.00 | 0.00 | 0.00 | 59 | 1007.6 |
| 20260505052343 | 63 | 216 | 1.0 | 6.0 | 0.00 | 0.00 | 0.00 | 60 | 1007.8 |
| 20260505051841 | 64 | 202 | 3.0 | 4.0 | 0.00 | 0.00 | 0.00 | 59 | 1007.8 |
| 20260505051338 | 63 | 176 | 1.0 | 4.0 | 0.00 | 0.00 | 0.00 | 60 | 1007.7 |
| 20260505050836 | 63 | 165 | 2.0 | 6.0 | 0.00 | 0.00 | 0.00 | 60 | 1007.8 |
| 20260505050334 | 63 | 150 | 1.0 | 1.0 | 0.00 | 0.00 | 0.00 | 60 | 1007.9 |
| 20260505041301 | 63 | 126 | 1.0 | 3.0 | 0.00 | 0.00 | 0.00 | 60 | 1007.6 |
| 20260505040758 | 63 | 161 | 2.0 | 2.0 | 0.00 | 0.00 | 0.00 | 60 | 1007.7 |
| 20260505040255 | 64 | 162 | 2.0 | 3.0 | 0.00 | 0.00 | 0.00 | 59 | 1007.8 |
| 20260505035752 | 64 | 149 | 1.0 | 6.0 | 0.00 | 0.00 | 0.00 | 59 | 1007.6 |
| 20260505035248 | 64 | 142 | 1.0 | 4.0 | 0.00 | 0.00 | 0.00 | 59 | 1007.8 |
| 20260505034745 | 64 | 257 | 3.0 | 6.0 | 0.00 | 0.00 | 0.00 | 58 | 1007.8 |
| 20260505034242 | 64 | 201 | 3.0 | 4.0 | 0.00 | 0.00 | 0.00 | 58 | 1007.7 |
| 20260505033738 | 64 | 136 | 2.0 | 3.0 | 0.00 | 0.00 | 0.00 | 59 | 1007.8 |
| 20260505033236 | 64 | 199 | 2.0 | 3.0 | 0.00 | 0.00 | 0.00 | 58 | 1007.6 |
| 20260505032734 | 63 | 174 | 3.0 | 6.0 | 0.00 | 0.00 | 0.00 | 59 | 1007.5 |
| 20260505032229 | 63 | 141 | 1.0 | 3.0 | 0.00 | 0.00 | 0.00 | 59 | 1007.5 |
| 20260505031728 | 64 | 190 | 1.0 | 2.0 | 0.00 | 0.00 | 0.00 | 59 | 1007.6 |
| 20260505031223 | 63 | 132 | 0.0 | 2.0 | 0.00 | 0.00 | 0.00 | 60 | 1007.4 |
| 20260505030721 | 63 | 156 | 1.0 | 2.0 | 0.00 | 0.00 | 0.00 | 59 | 1007.6 |
| 20260505030217 | 63 | 176 | 2.0 | 2.0 | 0.00 | 0.00 | 0.00 | 61 | 1007.6 |
| 20260505025713 | 62 | 120 | 1.0 | 2.0 | 0.00 | 0.00 | 0.00 | 61 | 1007.6 |
| 20260505025211 | 62 | 153 | 1.0 | 2.0 | 0.00 | 0.00 | 0.00 | 62 | 1007.4 |
| 20260505024709 | 62 | 129 | 1.0 | 2.0 | 0.00 | 0.00 | 0.00 | 63 | 1007.6 |
| 20260505024206 | 62 | 144 | 1.0 | 1.0 | 0.00 | 0.00 | 0.00 | 65 | 1007.6 |
| 20260505023703 | 60 | 158 | 1.0 | 1.0 | 0.00 | 0.00 | 0.00 | 67 | 1007.9 |
| 20260505023200 | 60 | 146 | 0.0 | 1.0 | 0.00 | 0.00 | 0.00 | 71 | 1007.8 |
| 20260505022658 | 60 | 126 | 0.0 | 0.0 | 0.00 | 0.00 | 0.00 | 72 | 1007.5 |
| 20260505022154 | 60 | 124 | 0.0 | 0.0 | 0.00 | 0.00 | 0.00 | 72 | 1007.7 |
| 20260505021651 | 60 | 122 | 0.0 | 0.0 | 0.00 | 0.00 | 0.00 | 71 | 1007.7 |
| 20260505021148 | 60 | 124 | 0.0 | 0.0 | 0.00 | 0.00 | 0.00 | 72 | 1007.6 |
| 20260505020643 | 61 | 121 | 0.0 | 0.0 | 0.00 | 0.00 | 0.00 | 72 | 1007.7 |
| 20260505020139 | 61 | 134 | 0.0 | 0.0 | 0.00 | 0.00 | 0.00 | 69 | 1007.7 |
| 20260505015637 | 61 | 140 | 1.0 | 1.0 | 0.00 | 0.00 | 0.00 | 70 | 1007.9 |
| 20260505015133 | 61 | 129 | 0.0 | 0.0 | 0.00 | 0.00 | 0.00 | 69 | 1007.9 |
| 20260505014630 | 62 | 123 | 0.0 | 0.0 | 0.00 | 0.00 | 0.00 | 69 | 1007.7 |
| 20260505014127 | 62 | 127 | 1.0 | 1.0 | 0.00 | 0.00 | 0.00 | 67 | 1007.6 |
| 20260505013625 | 63 | 123 | 0.0 | 1.0 | 0.00 | 0.00 | 0.00 | 65 | 1007.6 |
| 20260505013122 | 63 | 124 | 1.0 | 3.0 | 0.00 | 0.00 | 0.00 | 64 | 1007.5 |
| 20260505012620 | 64 | 236 | 4.0 | 7.0 | 0.00 | 0.00 | 0.00 | 63 | 1007.7 |
| 20260505012117 | 66 | 259 | 5.0 | 13.0 | 0.00 | 0.00 | 0.00 | 53 | 1007.8 |
| 20260505011612 | 66 | 238 | 2.0 | 4.0 | 0.00 | 0.00 | 0.00 | 50 | 1007.6 |
| 20260505011110 | 66 | 168 | 1.0 | 4.0 | 0.00 | 0.00 | 0.00 | 50 | 1007.3 |
| 20260505010605 | 67 | 140 | 1.0 | 2.0 | 0.00 | 0.00 | 0.00 | 50 | 1007.3 |
| 20260505005558 | 66 | 130 | 0.0 | 1.0 | 0.00 | 0.00 | 0.00 | 50 | 1007.1 |
| 20260505005056 | 67 | 305 | 1.0 | 2.0 | 0.00 | 0.00 | 0.00 | 50 | 1007.2 |
| 20260505004552 | 67 | 142 | 2.0 | 3.0 | 0.00 | 0.00 | 0.00 | 49 | 1007.2 |
| 20260505004049 | 67 | 126 | 1.0 | 2.0 | 0.00 | 0.00 | 0.00 | 49 | 1007.2 |
| 20260505003547 | 67 | 155 | 1.0 | 3.0 | 0.00 | 0.00 | 0.00 | 49 | 1006.9 |
| 20260505003044 | 67 | 225 | 2.0 | 4.0 | 0.00 | 0.00 | 0.00 | 49 | 1007.2 |
| 20260505002543 | 68 | 163 | 2.0 | 4.0 | 0.00 | 0.00 | 0.00 | 48 | 1007.2 |
| 20260505002038 | 68 | 237 | 4.0 | 4.0 | 0.00 | 0.00 | 0.00 | 48 | 1007.0 |
| 20260505001534 | 68 | 169 | 2.0 | 2.0 | 0.00 | 0.00 | 0.00 | 48 | 1006.9 |
| 20260505001032 | 68 | 194 | 1.0 | 4.0 | 0.00 | 0.00 | 0.00 | 47 | 1006.9 |
| 20260505000529 | 69 | 201 | 2.0 | 4.0 | 0.00 | 0.00 | 0.00 | 46 | 1006.8 |
| 20260505000027 | 69 | 182 | 1.0 | 2.0 | 0.00 | 0.00 | 0.00 | 47 | 1006.8 |
| 20260504235523 | 69 | 174 | 2.0 | 4.0 | 0.00 | 0.00 | 0.00 | 47 | 1006.7 |
| 20260504235019 | 69 | 138 | 2.0 | 4.0 | 0.00 | 0.00 | 0.00 | 47 | 1006.7 |
| 20260504234517 | 70 | 127 | 0.0 | 4.0 | 0.00 | 0.00 | 0.00 | 46 | 1006.8 |
| 20260504234014 | 70 | 234 | 4.0 | 6.0 | 0.00 | 0.00 | 0.00 | 46 | 1006.7 |
| 20260504233509 | 71 | 209 | 2.0 | 3.0 | 0.00 | 0.00 | 0.00 | 45 | 1006.4 |
| 20260504233006 | 70 | 168 | 1.0 | 3.0 | 0.00 | 0.00 | 0.00 | 46 | 1006.5 |
| 20260504232503 | 71 | 244 | 2.0 | 3.0 | 0.00 | 0.00 | 0.00 | 45 | 1006.2 |
| 20260504232001 | 71 | 253 | 3.0 | 4.0 | 0.00 | 0.00 | 0.00 | 44 | 1006.4 |
| 20260504231457 | 72 | 251 | 6.0 | 9.0 | 0.00 | 0.00 | 0.00 | 42 | 1006.2 |
| 20260504230953 | 72 | 201 | 2.0 | 6.0 | 0.00 | 0.00 | 0.00 | 43 | 1006.1 |
| 20260504230450 | 71 | 157 | 2.0 | 6.0 | 0.00 | 0.00 | 0.00 | 43 | 1006.3 |
| 20260504225949 | 71 | 194 | 2.0 | 10.0 | 0.00 | 0.00 | 0.00 | 44 | 1006.2 |
| 20260504225445 | 72 | 146 | 2.0 | 3.0 | 0.00 | 0.00 | 0.00 | 44 | 1006.3 |
| 20260504224942 | 72 | 280 | 3.0 | 9.0 | 0.00 | 0.00 | 0.00 | 43 | 1006.4 |
| 20260504224439 | 73 | 214 | 2.0 | 8.0 | 0.00 | 0.00 | 0.00 | 43 | 1006.1 |
| 20260504223936 | 73 | 175 | 3.0 | 6.0 | 0.00 | 0.00 | 0.00 | 41 | 1006.2 |
| 20260504223432 | 71 | 168 | 2.0 | 3.0 | 0.00 | 0.00 | 0.00 | 43 | 1006.1 |
| 20260504222927 | 71 | 129 | 1.0 | 3.0 | 0.00 | 0.00 | 0.00 | 43 | 1006.2 |
| 20260504222426 | 71 | 168 | 5.0 | 9.0 | 0.00 | 0.00 | 0.00 | 43 | 1006.2 |
| 20260504221923 | 71 | 233 | 3.0 | 6.0 | 0.00 | 0.00 | 0.00 | 43 | 1006.1 |
| 20260504221420 | 71 | 245 | 5.0 | 9.0 | 0.00 | 0.00 | 0.00 | 42 | 1006.1 |
| 20260504220917 | 72 | 119 | 2.0 | 8.0 | 0.00 | 0.00 | 0.00 | 41 | 1006.0 |
| 20260504220413 | 72 | 288 | 2.0 | 9.0 | 0.00 | 0.00 | 0.00 | 42 | 1006.0 |
| 20260504215911 | 74 | 62 | 5.0 | 7.0 | 0.00 | 0.00 | 0.00 | 39 | 1006.1 |
| 20260504215407 | 74 | 222 | 3.0 | 6.0 | 0.00 | 0.00 | 0.00 | 40 | 1006.2 |
| 20260504214903 | 74 | 195 | 3.0 | 8.0 | 0.00 | 0.00 | 0.00 | 40 | 1006.2 |
| 20260504214400 | 74 | 116 | 4.0 | 10.0 | 0.00 | 0.00 | 0.00 | 39 | 1006.3 |
| 20260504213857 | 75 | 170 | 2.0 | 4.0 | 0.00 | 0.00 | 0.00 | 38 | 1006.2 |
| 20260504213353 | 74 | 273 | 5.0 | 6.0 | 0.00 | 0.00 | 0.00 | 40 | 1006.2 |
| 20260504212850 | 73 | 213 | 4.0 | 6.0 | 0.00 | 0.00 | 0.00 | 39 | 1006.1 |
| 20260504212346 | 74 | 224 | 4.0 | 8.0 | 0.00 | 0.00 | 0.00 | 38 | 1006.0 |
| 20260504211844 | 75 | 219 | 2.0 | 6.0 | 0.00 | 0.00 | 0.00 | 38 | 1005.9 |
| 20260504211340 | 75 | 282 | 4.0 | 7.0 | 0.00 | 0.00 | 0.00 | 38 | 1006.1 |
| 20260504210838 | 75 | 233 | 5.0 | 8.0 | 0.00 | 0.00 | 0.00 | 37 | 1006.2 |
| 20260504210334 | 75 | 263 | 4.0 | 8.0 | 0.00 | 0.00 | 0.00 | 39 | 1006.2 |
| 20260504205832 | 74 | 200 | 5.0 | 7.0 | 0.00 | 0.00 | 0.00 | 37 | 1006.1 |
| 20260504205329 | 76 | 137 | 1.0 | 6.0 | 0.00 | 0.00 | 0.00 | 40 | 1006.5 |
| 20260504204827 | 75 | 153 | 1.0 | 2.0 | 0.00 | 0.00 | 0.00 | 38 | 1006.3 |
| 20260504204326 | 75 | 143 | 4.0 | 6.0 | 0.00 | 0.00 | 0.00 | 36 | 1006.3 |
| 20260504203825 | 74 | 117 | 2.0 | 7.0 | 0.00 | 0.00 | 0.00 | 37 | 1006.1 |
| 20260504203321 | 74 | 211 | 5.0 | 7.0 | 0.00 | 0.00 | 0.00 | 37 | 1006.3 |
| 20260504202817 | 74 | 313 | 8.0 | 13.0 | 0.00 | 0.00 | 0.00 | 34 | 1006.2 |
| 20260504202314 | 75 | 267 | 5.0 | 13.0 | 0.00 | 0.00 | 0.00 | 35 | 1006.4 |
| 20260504201811 | 75 | 233 | 3.0 | 9.0 | 0.00 | 0.00 | 0.00 | 35 | 1006.3 |
| 20260504201308 | 75 | 269 | 4.0 | 10.0 | 0.00 | 0.00 | 0.00 | 37 | 1006.5 |
| 20260504200806 | 75 | 317 | 9.0 | 11.0 | 0.00 | 0.00 | 0.00 | 34 | 1006.8 |
| 20260504200302 | 73 | 245 | 9.0 | 13.0 | 0.00 | 0.00 | 0.00 | 35 | 1006.8 |
| 20260504195758 | 74 | 222 | 7.0 | 11.0 | 0.00 | 0.00 | 0.00 | 34 | 1006.8 |
| 20260504195254 | 74 | 243 | 5.0 | 10.0 | 0.00 | 0.00 | 0.00 | 36 | 1006.7 |
| 20260504194751 | 74 | 165 | 4.0 | 10.0 | 0.00 | 0.00 | 0.00 | 34 | 1007.1 |
| 20260504194247 | 74 | 208 | 4.0 | 7.0 | 0.00 | 0.00 | 0.00 | 33 | 1007.2 |
| 20260504193743 | 73 | 189 | 2.0 | 7.0 | 0.00 | 0.00 | 0.00 | 35 | 1007.0 |
| 20260504193241 | 74 | 266 | 6.0 | 11.0 | 0.00 | 0.00 | 0.00 | 33 | 1007.4 |
| 20260504192739 | 75 | 229 | 7.0 | 9.0 | 0.00 | 0.00 | 0.00 | 32 | 1007.4 |
| 20260504192237 | 75 | 196 | 4.0 | 6.0 | 0.00 | 0.00 | 0.00 | 32 | 1007.4 |
| 20260504191736 | 73 | 177 | 2.0 | 7.0 | 0.00 | 0.00 | 0.00 | 40 | 1007.3 |
| 20260504191232 | 73 | 180 | 4.0 | 8.0 | 0.00 | 0.00 | 0.00 | 34 | 1007.4 |
| 20260504190727 | 72 | 257 | 10.0 | 11.0 | 0.00 | 0.00 | 0.00 | 34 | 1007.7 |
| 20260504190224 | 73 | 244 | 5.0 | 8.0 | 0.00 | 0.00 | 0.00 | 34 | 1007.7 |
| 20260504185721 | 73 | 127 | 4.0 | 14.0 | 0.00 | 0.00 | 0.00 | 36 | 1007.7 |
| 20260504185218 | 73 | 233 | 6.0 | 10.0 | 0.00 | 0.00 | 0.00 | 35 | 1007.8 |
| 20260504184714 | 73 | 190 | 4.0 | 10.0 | 0.00 | 0.00 | 0.00 | 35 | 1007.8 |
| 20260504184210 | 72 | 246 | 4.0 | 11.0 | 0.00 | 0.00 | 0.00 | 37 | 1008.0 |
| 20260504183706 | 72 | 269 | 6.0 | 13.0 | 0.00 | 0.00 | 0.00 | 38 | 1008.0 |
| 20260504183203 | 72 | 186 | 6.0 | 13.0 | 0.00 | 0.00 | 0.00 | 36 | 1008.0 |
| 20260504182701 | 71 | 197 | 3.0 | 6.0 | 0.00 | 0.00 | 0.00 | 39 | 1008.2 |
| 20260504182158 | 71 | 244 | 6.0 | 11.0 | 0.00 | 0.00 | 0.00 | 37 | 1008.2 |
| 20260504181655 | 71 | 223 | 6.0 | 13.0 | 0.00 | 0.00 | 0.00 | 37 | 1008.3 |
| 20260504181153 | 71 | 260 | 6.0 | 11.0 | 0.00 | 0.00 | 0.00 | 38 | 1008.2 |
| 20260504180652 | 72 | 194 | 4.0 | 8.0 | 0.00 | 0.00 | 0.00 | 42 | 1008.5 |
| 20260504180150 | 71 | 278 | 4.0 | 7.0 | 0.00 | 0.00 | 0.00 | 39 | 1008.3 |
| 20260504175647 | 71 | 233 | 5.0 | 7.0 | 0.00 | 0.00 | 0.00 | 38 | 1008.3 |
| 20260504175143 | 70 | 272 | 4.0 | 7.0 | 0.00 | 0.00 | 0.00 | 40 | 1008.6 |
| 20260504174642 | 70 | 240 | 6.0 | 8.0 | 0.00 | 0.00 | 0.00 | 41 | 1008.6 |
| 20260504174138 | 69 | 90 | 3.0 | 11.0 | 0.00 | 0.00 | 0.00 | 41 | 1008.6 |
| 20260504173635 | 69 | 197 | 4.0 | 9.0 | 0.00 | 0.00 | 0.00 | 41 | 1008.8 |
| 20260504173133 | 69 | 244 | 4.0 | 9.0 | 0.00 | 0.00 | 0.00 | 41 | 1008.8 |
| 20260504172629 | 69 | 279 | 6.0 | 9.0 | 0.00 | 0.00 | 0.00 | 41 | 1008.8 |
| 20260504172126 | 69 | 185 | 3.0 | 7.0 | 0.00 | 0.00 | 0.00 | 43 | 1009.0 |
| 20260504171622 | 68 | 271 | 5.0 | 8.0 | 0.00 | 0.00 | 0.00 | 47 | 1009.1 |
| 20260504171119 | 69 | 228 | 5.0 | 8.0 | 0.00 | 0.00 | 0.00 | 43 | 1009.1 |
| 20260504170615 | 68 | 138 | 2.0 | 8.0 | 0.00 | 0.00 | 0.00 | 43 | 1009.2 |
| 20260504170113 | 67 | 128 | 1.0 | 4.0 | 0.00 | 0.00 | 0.00 | 45 | 1009.4 |
| 20260504150958 | 62 | 187 | 3.0 | 6.0 | 0.00 | 0.00 | 0.00 | 47 | 1010.9 |
| 20260504150456 | 61 | 214 | 3.0 | 9.0 | 0.00 | 0.00 | 0.00 | 49 | 1011.0 |
| 20260504140916 | 58 | 156 | 3.0 | 8.0 | 0.00 | 0.00 | 0.00 | 48 | 1011.2 |
| 20260504140412 | 58 | 255 | 6.0 | 8.0 | 0.00 | 0.00 | 0.00 | 48 | 1011.3 |
| 20260504130338 | 55 | 217 | 2.0 | 2.0 | 0.00 | 0.00 | 0.00 | 50 | 1011.6 |
| 20260504120301 | 50 | 129 | 1.0 | 1.0 | 0.00 | 0.00 | 0.00 | 57 | 1011.9 |
| 20260504110225 | 47 | 127 | 0.0 | 1.0 | 0.00 | 0.00 | 0.00 | 57 | 1011.6 |
| 20260504100148 | 45 | 120 | 0.0 | 1.0 | 0.00 | 0.00 | 0.00 | 59 | 1012.0 |
| 20260504090111 | 44 | 166 | 1.0 | 1.0 | 0.00 | 0.00 | 0.00 | 62 | 1012.1 |
| 20260504081541 | 42 | 131 | 0.0 | 1.0 | 0.00 | 0.00 | 0.00 | 65 | 1012.2 |
| 20260504081037 | 42 | 129 | 0.0 | 1.0 | 0.00 | 0.00 | 0.00 | 65 | 1012.1 |
| 20260504080534 | 42 | 136 | 1.0 | 1.0 | 0.00 | 0.00 | 0.00 | 65 | 1012.2 |